Date String (YYYY-MM-DD hh:mm:ss) UTC,Instrument flags,absolute air pressure of the measurement (hPa),sample flow rate (lpm),inlet stack bypass flow (lpm),air temperature of the measurement (°C),ambient temperature measured by the external sensor (°C),aerosol sample conditioner tube jacket temperature (°C),OPC LED temperature (°C),internal box temperature (°C),relative humidity of the measurement (%),span deviation,mass concentration of particles derived from Lorenz-Mie calculation of OPC scattering (μg/m³),mass concentration of particles derived from Lorenz-Mie calculation of OPC scattering (μg/m³),mass concentration of particles derived from Lorenz-Mie calculation of OPC scattering (μg/m³)
DateTimeUTC,F1_M11,P_M11,Q1_M11,Q2_M11,T1_M11,T2_M11,T3_M11,T4_M11,T5_M11,U1_M11,ZSPAN_M11,X0_M11,X2_M11,X1_M11
2023-11-10 21:00:00,SystemResetWarning,0830.2,5.00,000.00,025.7,024.9,000.0,033.9,027.2,6.3,0000.0,0005.25,0002.60,0002.00
2023-11-10 21:01:00,SystemResetWarning,0830.2,4.99,000.00,025.7,024.9,000.0,033.9,027.2,6.3,0000.0,0005.31,0002.62,0002.01
2023-11-10 21:02:00,SystemResetWarning,0830.1,5.00,000.00,025.7,024.9,000.0,033.9,027.2,6.2,0000.0,0005.41,0002.67,0002.02
2023-11-10 21:03:00,SystemResetWarning,0830.1,5.00,000.00,025.7,025.0,000.0,033.9,027.2,6.2,0000.0,0005.43,0002.69,0002.02
2023-11-10 21:04:00,SystemResetWarning,0830.2,5.00,000.00,025.7,025.0,000.0,033.9,027.2,6.2,0000.0,0005.43,0002.73,0002.04
2023-11-10 21:05:00,SystemResetWarning,0830.1,5.00,000.00,025.7,025.0,000.0,033.9,027.2,6.3,0000.0,0005.40,0002.74,0002.06
2023-11-10 21:06:00,SystemResetWarning,0830.2,4.99,000.00,025.8,025.0,000.0,033.9,027.2,6.2,0000.0,0004.88,0002.74,0002.09
2023-11-10 21:07:00,SystemResetWarning,0830.2,5.00,000.00,025.8,025.0,000.0,034.0,027.2,6.1,0000.0,0004.37,0002.79,0002.11
2023-11-10 21:08:00,SystemResetWarning,0830.1,5.00,000.00,025.8,025.0,000.0,034.0,027.2,6.0,0000.0,0004.38,0002.82,0002.11
2023-11-10 21:09:00,SystemResetWarning,0830.1,5.00,000.00,025.8,025.0,000.0,034.0,027.2,6.1,0000.0,0004.53,0002.91,0002.13
2023-11-10 21:10:00,SystemResetWarning,0830.1,5.01,000.00,025.8,025.0,000.0,034.0,027.2,6.1,0000.0,0004.68,0002.98,0002.15
2023-11-10 21:11:00,SystemResetWarning,0830.1,5.01,000.00,025.8,025.0,000.0,034.0,027.3,6.0,0000.0,0004.65,0002.97,0002.20
2023-11-10 21:12:00,SystemResetWarning,0830.1,5.00,000.00,025.8,025.0,000.0,034.0,027.3,6.0,0000.0,0004.48,0002.99,0002.23
2023-11-10 21:13:00,SystemResetWarning,0830.1,4.99,000.00,025.8,025.1,000.0,034.0,027.3,6.0,0000.0,0004.65,0003.04,0002.25
2023-11-10 21:14:00,SystemResetWarning,0830.1,4.99,000.00,025.8,025.1,000.0,034.0,027.3,6.0,0000.0,0004.77,0003.06,0002.26
2023-11-10 21:15:00,SystemResetWarning,0830.1,4.99,000.00,025.8,025.1,000.0,034.0,027.3,5.9,0000.0,0005.41,0003.11,0002.29
2023-11-10 21:16:00,SystemResetWarning,0830.0,5.01,000.00,025.8,025.1,000.0,034.1,027.3,5.9,0000.0,0006.37,0003.14,0002.31
2023-11-10 21:17:00,SystemResetWarning,0830.1,5.01,000.00,025.8,025.1,000.0,034.1,027.3,5.9,0000.0,0006.52,0003.17,0002.33
2023-11-10 21:18:00,SystemResetWarning,0830.1,5.01,000.00,025.8,025.1,000.0,034.1,027.3,5.9,0000.0,0006.72,0003.17,0002.34
2023-11-10 21:19:00,SystemResetWarning,0830.0,4.99,000.00,025.9,025.1,000.0,034.1,027.3,5.9,0000.0,0006.77,0003.18,0002.36
2023-11-10 21:20:00,SystemResetWarning,0830.0,5.00,000.00,025.9,025.1,000.0,034.1,027.3,5.8,0000.0,0006.77,0003.17,0002.37
2023-11-10 21:21:00,SystemResetWarning,0830.0,5.00,000.00,025.9,025.1,000.0,034.1,027.3,5.8,0000.0,0006.88,0003.16,0002.38
2023-11-10 21:22:00,SystemResetWarning,0830.0,5.00,000.00,025.9,025.1,000.0,034.1,027.3,5.7,0000.0,0007.94,0003.17,0002.39
2023-11-10 21:23:00,SystemResetWarning,0830.0,5.00,000.00,025.9,025.1,000.0,034.1,027.3,5.8,0000.0,0007.91,0003.16,0002.39
2023-11-10 21:24:00,SystemResetWarning,0830.1,5.00,000.00,025.9,025.1,000.0,034.1,027.3,5.7,0000.0,0007.76,0003.13,0002.40
2023-11-10 21:25:00,SystemResetWarning,0830.0,5.00,000.00,025.9,025.1,000.0,034.1,027.3,5.8,0000.0,0007.87,0003.15,0002.41
2023-11-10 21:26:00,SystemResetWarning,0830.1,5.00,000.00,025.9,025.1,000.0,034.1,027.3,5.8,0000.0,0007.74,0003.16,0002.42
2023-11-10 21:27:00,SystemResetWarning,0830.1,5.00,000.00,025.9,025.1,000.0,034.1,027.3,5.8,0000.0,0007.29,0003.15,0002.42
2023-11-10 21:28:00,SystemResetWarning,0830.0,5.00,000.00,025.9,025.1,000.0,034.2,027.3,5.8,0000.0,0007.27,0003.14,0002.41
2023-11-10 21:29:00,SystemResetWarning,0830.0,5.00,000.00,025.9,025.1,000.0,034.2,027.4,5.9,0000.0,0007.20,0003.14,0002.41
2023-11-10 21:30:00,SystemResetWarning,0830.0,5.00,000.00,025.9,025.1,000.0,034.2,027.3,5.9,0000.0,0007.39,0003.15,0002.42
2023-11-10 21:31:00,SystemResetWarning,0830.0,5.00,000.00,025.9,025.1,000.0,034.2,027.3,5.8,0000.0,0007.39,0003.15,0002.42
2023-11-10 21:32:00,SystemResetWarning,0830.1,5.00,000.00,025.9,025.1,000.0,034.2,027.3,5.8,0000.0,0007.47,0003.17,0002.44
2023-11-10 21:33:00,SystemResetWarning,0830.1,5.00,000.00,025.9,025.1,000.0,034.2,027.4,5.7,0000.0,0006.10,0003.16,0002.45
2023-11-10 21:34:00,SystemResetWarning,0830.0,5.00,000.00,025.9,025.2,000.0,034.2,027.3,5.6,0000.0,0006.43,0003.18,0002.46
2023-11-10 21:35:00,SystemResetWarning,0830.1,5.00,000.00,025.9,025.2,000.0,034.2,027.4,5.6,0000.0,0007.43,0003.22,0002.50
2023-11-10 21:36:00,SystemResetWarning,0830.1,5.01,000.00,026.0,025.2,000.0,034.2,027.4,5.7,0000.0,0007.42,0003.24,0002.53
2023-11-10 21:37:00,SystemResetWarning,0830.1,5.00,000.00,026.0,025.2,000.0,034.2,027.4,5.8,0000.0,0007.34,0003.25,0002.56
2023-11-10 21:38:00,SystemResetWarning,0830.0,5.01,000.00,026.0,025.2,000.0,034.2,027.4,5.8,0000.0,0007.23,0003.25,0002.59
2023-11-10 21:39:00,SystemResetWarning,0830.0,5.00,000.00,026.0,025.2,000.0,034.2,027.4,5.7,0000.0,0007.33,0003.28,0002.64
2023-11-10 21:40:00,SystemResetWarning,0830.1,5.00,000.00,026.0,025.2,000.0,034.2,027.4,5.8,0000.0,0008.86,0003.31,0002.69
2023-11-10 21:41:00,SystemResetWarning,0830.1,5.00,000.00,026.0,025.2,000.0,034.2,027.4,5.6,0000.0,0009.10,0003.32,0002.73
2023-11-10 21:42:00,SystemResetWarning,0830.0,4.99,000.00,026.0,025.2,000.0,034.3,027.3,5.5,0000.0,0008.97,0003.32,0002.76
2023-11-10 21:43:00,SystemResetWarning,0830.0,5.00,000.00,026.0,025.2,000.0,034.3,027.3,5.5,0000.0,0009.01,0003.34,0002.80
2023-11-10 21:44:00,SystemResetWarning,0830.1,5.01,000.00,026.0,025.2,000.0,034.3,027.4,5.5,0000.0,0009.05,0003.38,0002.84
2023-11-10 21:45:00,SystemResetWarning,0830.1,5.01,000.00,026.0,025.2,000.0,034.3,027.4,5.7,0000.0,0009.53,0003.42,0002.86
2023-11-10 21:46:00,SystemResetWarning,0830.1,5.01,000.00,026.0,025.2,000.0,034.3,027.4,5.5,0000.0,0009.53,0003.41,0002.87
2023-11-10 21:47:00,SystemResetWarning,0830.1,5.00,000.00,026.0,025.2,000.0,034.3,027.4,5.5,0000.0,0009.16,0003.38,0002.88
2023-11-10 21:48:00,SystemResetWarning,0830.1,5.00,000.00,026.0,025.2,000.0,034.3,027.5,5.5,0000.0,0009.14,0003.39,0002.89
2023-11-10 21:49:00,SystemResetWarning,0830.0,5.01,000.00,026.0,025.2,000.0,034.3,027.5,5.4,0000.0,0009.09,0003.37,0002.88
2023-11-10 21:50:00,SystemResetWarning,0830.0,4.99,000.00,026.1,025.3,000.0,034.3,027.5,5.5,0000.0,0008.99,0003.38,0002.87
2023-11-10 21:51:00,SystemResetWarning,0830.1,5.00,000.00,026.1,025.3,000.0,034.3,027.5,5.5,0000.0,0007.76,0003.38,0002.86
2023-11-10 21:52:00,SystemResetWarning,0830.0,5.00,000.00,026.1,025.3,000.0,034.3,027.5,5.6,0000.0,0007.51,0003.40,0002.87
2023-11-10 21:53:00,SystemResetWarning,0830.1,4.99,000.00,026.1,025.3,000.0,034.3,027.5,5.5,0000.0,0007.50,0003.41,0002.86
2023-11-10 21:54:00,SystemResetWarning,0830.0,5.00,000.00,026.1,025.3,000.0,034.3,027.5,5.4,0000.0,0007.42,0003.39,0002.84
2023-11-10 21:55:00,SystemResetWarning,0830.1,5.00,000.00,026.1,025.4,000.0,034.3,027.6,5.6,0000.0,0007.34,0003.36,0002.81
2023-11-10 21:56:00,SystemResetWarning,0830.0,5.00,000.00,026.1,025.4,000.0,034.3,027.6,5.7,0000.0,0006.93,0003.36,0002.80
2023-11-10 21:57:00,SystemResetWarning,0830.0,5.00,000.00,026.2,025.4,000.0,034.4,027.6,5.5,0000.0,0006.40,0003.37,0002.80
2023-11-10 21:58:00,SystemResetWarning,0830.0,5.00,000.00,026.2,025.4,000.0,034.4,027.6,5.5,0000.0,0007.12,0003.39,0002.78
2023-11-10 21:59:00,SystemResetWarning,0830.1,5.01,000.00,026.2,025.4,000.0,034.4,027.6,5.4,0000.0,0007.20,0003.40,0002.76
